Eden Prairie, MN

12:19 PM CDT on August 24, 2016 (GMT -0500)
Flying Cloud

Weather History for KFCM - January, 2011

Change the Weather History Date:

Wednesday, January 19, 2011

  Actual Average Record
Temperature  
Mean Temperature 1 °F -  
Max Temperature 8 °F 21 °F 39 °F (2013)
Min Temperature -6 °F 6 °F -15 °F (2008)
Degree Days  
Heating Degree Days 64    
Moisture  
Dew Point -3 °F    
Average Humidity 76    
Maximum Humidity 88    
Minimum Humidity 61    
Precipitation  
Precipitation 0.01 in - - ()
Sea Level Pressure  
Sea Level Pressure 30.19 in    
Wind  
Wind Speed 4 mph (West)    
Max Wind Speed 9 mph    
Max Gust Speed -    
Visibility 8 miles    
Events Snow    
Averages and records for this station are not official NWS values.
T = Trace of Precipitation, MM = Missing Value Source: NWS Daily Summary

Daily Weather History Graph

Daily Weather History Graph

Search for Another Location

Airport or City:

Trip Planner

Search our weather history database for the weather conditions in past years. The results will help you decide how hot, cold, wet, or windy it might be!

Date:

Astronomy

Jan. 19, 2011 Rise Set
Actual Time 7:45 AM CST 5:03 PM CST
Civil Twilight 7:13 AM CST 5:36 PM CST
Nautical Twilight 6:37 AM CST 6:12 PM CST
Astronomical Twilight 6:02 AM CST 6:47 PM CST
Moon 5:14 PM CST (1/19) 7:25 AM CST (1/19)
Length of Visible Light 10h 22m
Length of Day
9h 18m
Full, 100% of the Moon is Illuminated
Jan 19
Full
Jan 19
Full
Jan 26
Last Quarter
Feb 2
New
Feb 11
First Quarter

Hourly Weather History & Observations

Time (CST) Temp. Windchill Dew Point Humidity Pressure Visibility Wind Dir Wind Speed Gust Speed Precip Events Conditions
12:51 AM 8.6 °F 0.1 °F 1.4 °F 73% 30.11 in 2.5 mi NW 4.6 mph - 0.00 in Snow Light Snow
12:53 AM 7.0 °F 0.1 °F 1.0 °F 77% 30.17 in 2.5 mi NNW 3.5 mph - 0.00 in Snow Light Snow
1:31 AM 6.8 °F -2.0 °F 3.2 °F 85% 30.10 in 1.2 mi NNW 4.6 mph - 0.00 in Snow Light Snow
1:53 AM 7.0 °F -1.7 °F 1.9 °F 80% 30.17 in 1.8 mi NW 4.6 mph - 0.01 in Snow Light Snow
2:00 AM 6.8 °F -2.0 °F 1.4 °F 79% 30.11 in 2.5 mi NW 4.6 mph - 0.00 in Snow Light Snow
2:07 AM 6.8 °F -4.8 °F 1.4 °F 79% 30.12 in 3.0 mi NW 6.9 mph - 0.00 in Snow Light Snow
2:26 AM 6.8 °F -2.0 °F 1.4 °F 79% 30.11 in 5.0 mi NNW 4.6 mph - 0.00 in Snow Light Snow
2:53 AM 6.1 °F - 1.0 °F 80% 30.18 in 10.0 mi Calm Calm - 0.00 in   Overcast
3:53 AM 5.0 °F - -0.0 °F 80% 30.17 in 10.0 mi Calm Calm - N/A   Overcast
4:53 AM 3.9 °F - -0.0 °F 84% 30.18 in 10.0 mi Calm Calm - N/A   Mostly Cloudy
5:53 AM -0.0 °F - -4.0 °F 83% 30.19 in 10.0 mi Calm Calm - N/A   Clear
6:53 AM 1.0 °F -6.7 °F -4.0 °F 79% 30.19 in 10.0 mi West 3.5 mph - N/A   Clear
7:53 AM -0.9 °F - -6.0 °F 79% 30.20 in 10.0 mi Calm Calm - N/A   Mostly Cloudy
8:53 AM 1.0 °F - -2.9 °F 83% 30.21 in 10.0 mi Calm Calm - N/A   Overcast
9:53 AM 1.9 °F -5.6 °F -0.9 °F 88% 30.22 in 10.0 mi WSW 3.5 mph - N/A   Scattered Clouds
10:53 AM 5.0 °F -2.1 °F -0.9 °F 76% 30.23 in 10.0 mi WSW 3.5 mph - N/A   Clear
11:53 AM 8.1 °F -2.0 °F -0.9 °F 67% 30.22 in 10.0 mi WSW 5.8 mph - N/A   Clear
12:53 PM 8.1 °F -2.0 °F -0.9 °F 67% 30.20 in 10.0 mi West 5.8 mph - N/A   Clear
1:53 PM 8.1 °F 1.4 °F -0.9 °F 67% 30.19 in 10.0 mi West 3.5 mph - N/A   Clear
2:53 PM 8.1 °F -5.3 °F -2.9 °F 61% 30.19 in 10.0 mi WSW 9.2 mph - N/A   Clear
3:53 PM 6.1 °F -7.8 °F -4.0 °F 63% 30.21 in 10.0 mi SW 9.2 mph - N/A   Clear
4:53 PM 3.0 °F -10.5 °F -6.0 °F 66% 30.22 in 10.0 mi WSW 8.1 mph - N/A   Clear
5:53 PM -0.9 °F -15.3 °F -7.1 °F 75% 30.25 in 10.0 mi SW 8.1 mph - N/A   Clear
6:53 PM -2.9 °F -17.7 °F -9.0 °F 75% 30.22 in 10.0 mi SW 8.1 mph - N/A   Clear
7:53 PM -4.0 °F -14.6 °F -9.0 °F 79% 30.25 in 10.0 mi West 4.6 mph - N/A   Clear
8:53 PM -5.1 °F -13.6 °F -11.0 °F 76% 30.26 in 10.0 mi WSW 3.5 mph - N/A   Clear
9:53 PM -5.1 °F -17.6 °F -11.0 °F 76% 30.25 in 10.0 mi SW 5.8 mph - N/A   Clear
10:53 PM -6.0 °F -16.9 °F -11.0 °F 79% 30.24 in 10.0 mi SW 4.6 mph - N/A   Clear
11:53 PM -6.0 °F -18.6 °F -11.0 °F 79% 30.23 in 10.0 mi WSW 5.8 mph - N/A   Clear